Powrót do katalogu

LYRA-1

AktywnyNaukaSSO
NORAD 62664·PAYLOAD·🇦🇺 Australia

Wystrzelony Jan 14, 2025 z Vandenberg Space Force Base

Loading…

Następne Przeloty (najbliższe 24 godziny)

TLE

ŚwieżeSource: Space-Track

Epoka: Sep 14, 2026, 15:01 UTC

1 62664U 25009BH  26257.62570722  .00007546  00000-0  35101-3 0  9998
2 62664  97.3905 330.3870 0007441 234.1434 125.9110 15.20211974 92002

Śledź LYRA-1 w czasie rzeczywistym z AllMySat

Download on the App Store